El Dorado International Airport
SKBO : rendu visible

Aérodrome :











RETROUVEZ-NOUS SUR...

 
LOGIN :

S'inscrire | Disclaimer

   EN    FR    IT 

 









Légende :    VFR   VFR Marginal   IFR   IFR Intensif   IFR Très Intensif
Visi : 
Plafond : 
>= 8 km
>= 3000ft
5 à 8 km
1000 à 3000 ft
1500m à 5 km
500 à 1000 ft
800 à 1500m
200 à 500 ft
< 800m
< 200 ft
Symboles :   Orages  Brouillard  Fortes neiges  Fortes précipitations  Vent > 20 kt






- Altitude de l'aérodrome : 8361 ft
- Code IATA : BOG


SKBO - El Dorado International

DERNIER METAR :
  • 301600Z 32005KT 9999 SCT020 SCT200 17/11 A3039 NOSIG

METARs EXPIRÉS :
  • 301500Z VRB02KT 9999 SCT017 SCT080 16/11 A3041 NOSIG
  • 301400Z VRB02KT 9999 FEW017 BKN080 15/11 A3042 REDZ NOSIG

TAF TAF SKBO
Valide du 30 à 12h jusqu'au 31 à 12h UTC


301030Z 3012/3112 VRB02KT 9999 SCT014 BKN070
TEMPO 3012/3015 5000 DZRA
BECMG 3016/3018 29010KT
PROB30
TEMPO 3020/3024 5000 TSRA SCT016CB SCT020
BECMG 3100/3102 VRB02KT TX19/3018Z TN10/3110Z
FIR SKED / Amérique du Sud



MET'MAP, la Météo Aéronautique d'un coup d'oeil ! - Copyright ORBIFLY Décembre 2007 - Disclaimer

ORBIFLY MET'MAP TEAM :

Programmation & Développement : Alexandra Zaïnal
Sur une idée originale de : Baudouin d'Aumeries
Assistance à la programmation : Marc-Olivier Méhu
Soutien technique & logistique : Manuel Goepfert

Contact : metmap@orbifly.com




SOURCES & CREDITS :

   NOAA       Earth
Advisory